Flag for Germany Weather past 2 weeks in Marburg, Hesse, Germany

Now
73 °F

Overcast.


Feels Like: 77 °F
Forecast: 51 / 72 °F
Wind: 2 mph from East

Location: Giessen

Current Time: Sep 17, 2014 at 2:29:37 PM

Latest Report: Sep 17, 2014 at 2:00 PM


Visibility: 15 mi

Pressure: 29.90 "Hg

Humidity: 59%

Dew point: 58 °F

Location of MarburgLocation

Historic Weather in Marburg — Graph

°F

Marburg temperature yesterday

Maximum temperature yesterday: 75 °F (at 4:00 PM)
Minimum temperature yesterday: 56 °F (at 7:00 AM)
Average temperature yesterday: 64 °F

Past Weeks' High & Low Weather Summary

 TemperatureHumidityPressure
High78 °F (Sep 6, 4:00 PM)99% (Sep 6, 6:00 AM)30.23 "Hg (Sep 6, 6:00 AM)
Low48 °F (Sep 12, 4:00 AM)50% (Sep 8, 4:00 PM)29.84 "Hg (Sep 6, 6:00 PM)
Average61 °F83%30.05 "Hg
* Reported Sep 2 1:00 PM — Sep 17 1:00 PM, Marburg, Weather by CustomWeather, © 2014

Note: Actual official high and low records may vary slightly from our data, if they occured in-between our weather recording intervals... More about our weather records

Advertising

Marburg weather history for previous 24 hours

 ConditionsComfort  
Time TempWeatherWind HumidityBarometerVisibility
1:00 PM
Sep 17
70 °FOvercast.2 mph62%29.91 "Hg12 mi
12:00 PM68 °FOvercast.2 mph70%29.93 "Hg9 mi
11:00 AM65 °FOvercast.2 mph78%29.94 "Hg9 mi
10:00 AM61 °FOvercast.5 mph87%29.95 "Hg7 mi
9:00 AM56 °FFog.3 mph98%29.96 "Hg3 mi
8:00 AM52 °FFog.2 mph99%29.97 "Hg1 mi
7:00 AM52 °FFog.2 mph98%29.97 "Hg1 mi
6:00 AM52 °FOvercast.1 mph98%29.97 "Hg1 mi
5:00 AM53 °FOvercast.No wind98%29.97 "Hg0 mi
4:00 AM53 °FFog.1 mph97%29.96 "Hg2 mi
3:00 AM55 °FFog.3 mph97%29.97 "Hg2 mi
2:00 AM56 °FFog.3 mph96%29.97 "Hg3 mi
1:00 AM56 °FPassing clouds.2 mph96%29.98 "Hg6 mi
12:00 AM56 °FFog.1 mph94%29.98 "Hg4 mi
11:00 PM
Sep 16
58 °FClear.3 mph92%29.98 "Hg7 mi
10:00 PM61 °FClear.2 mph84%29.98 "Hg12 mi
9:00 PM64 °FClear.2 mph77%29.97 "Hg17 mi
8:00 PM67 °FPassing clouds.2 mph67%29.96 "Hg13 mi
7:00 PM71 °FSunny.3 mph59%29.95 "Hg22 mi
6:00 PM74 °FOvercast.2 mph54%29.94 "Hg19 mi
5:00 PM74 °FPartly sunny.5 mph54%29.95 "Hg19 mi
4:00 PM75 °FOvercast.5 mph54%29.95 "Hg19 mi
3:00 PM72 °FPassing clouds.3 mph58%29.96 "Hg17 mi
2:00 PM71 °FOvercast.3 mph71%29.98 "Hg9 mi
Weather by CustomWeather, © 2014

See weather overviewHow to use our weather pages